owner,sensor,date,latitude,longitude,vertical_datum,wind_speed,wind_to_direction,wind_speed_of_gust,qcFlag 
TCOON,ioos:station:TCOON:057:1,2007-12-01T00:00:00Z,28.4460,-96.3961,0.0,6.9,83.0,8.0,'11111222,11111222,11111222' 
TCOON,ioos:station:TCOON:057:1,2007-12-01T01:00:00Z,28.4460,-96.3961,0.0,7.8,90.0,9.1,'11111222,11111222,11111222' 
TCOON,ioos:station:TCOON:057:1,2007-12-01T03:00:00Z,28.4460,-96.3961,0.0,5.5,82.0,6.2,'11111222,11111222,11111222' 
TCOON,ioos:station:TCOON:057:1,2007-12-01T04:00:00Z,28.4460,-96.3961,0.0,4.0,96.0,4.4,'11111222,11111222,11111222' 
TCOON,ioos:station:TCOON:057:1,2007-12-01T05:00:00Z,28.4460,-96.3961,0.0,3.1,105.0,3.6,'11111222,11111222,11111222' 
TCOON,ioos:station:TCOON:057:1,2007-12-01T06:00:00Z,28.4460,-96.3961,0.0,3.3,138.0,3.6,'11111222,11111222,11111222' 
TCOON,ioos:station:TCOON:057:1,2007-12-01T07:00:00Z,28.4460,-96.3961,0.0,4.8,140.0,5.2,'11111222,11111222,11111222' 
TCOON,ioos:station:TCOON:057:1,2007-12-01T08:00:00Z,28.4460,-96.3961,0.0,6.6,132.0,7.2,'11111222,11111222,11111222' 
TCOON,ioos:station:TCOON:057:1,2007-12-01T09:00:00Z,28.4460,-96.3961,0.0,6.5,124.0,7.1,'11111222,11111222,11111222' 
TCOON,ioos:station:TCOON:057:1,2007-12-01T10:00:00Z,28.4460,-96.3961,0.0,7.1,130.0,7.9,'11111222,11111222,11111222' 
TCOON,ioos:station:TCOON:057:1,2007-12-01T11:00:00Z,28.4460,-96.3961,0.0,6.0,131.0,6.8,'11111222,11111222,11111222' 
TCOON,ioos:station:TCOON:057:1,2007-12-01T12:00:00Z,28.4460,-96.3961,0.0,5.7,131.0,6.3,'11111222,11111222,11111222' 
TCOON,ioos:station:TCOON:057:1,2007-12-01T13:00:00Z,28.4460,-96.3961,0.0,6.0,132.0,7.3,'11111222,11111222,11111222' 
TCOON,ioos:station:TCOON:057:1,2007-12-01T14:00:00Z,28.4460,-96.3961,0.0,7.2,136.0,8.0,'11111222,11111222,11111222' 
TCOON,ioos:station:TCOON:057:1,2007-12-01T15:00:00Z,28.4460,-96.3961,0.0,7.7,141.0,9.2,'11111222,11111222,11111222' 
TCOON,ioos:station:TCOON:057:1,2007-12-01T16:00:00Z,28.4460,-96.3961,0.0,8.0,143.0,8.9,'11111222,11111222,11111222' 
TCOON,ioos:station:TCOON:057:1,2007-12-01T17:00:00Z,28.4460,-96.3961,0.0,7.8,145.0,9.4,'11111222,11111222,11111222' 
TCOON,ioos:station:TCOON:057:1,2007-12-01T18:00:00Z,28.4460,-96.3961,0.0,6.9,152.0,7.9,'11111222,11111222,11111222' 
TCOON,ioos:station:TCOON:057:1,2007-12-01T19:00:00Z,28.4460,-96.3961,0.0,6.9,155.0,7.6,'11111222,11111222,11111222' 
TCOON,ioos:station:TCOON:057:1,2007-12-01T20:00:00Z,28.4460,-96.3961,0.0,7.5,155.0,8.3,'11111222,11111222,11111222' 
TCOON,ioos:station:TCOON:057:1,2007-12-01T21:00:00Z,28.4460,-96.3961,0.0,7.4,161.0,8.3,'11111222,11111222,11111222' 
TCOON,ioos:station:TCOON:057:1,2007-12-01T22:00:00Z,28.4460,-96.3961,0.0,6.1,164.0,7.3,'11111222,11111222,11111222' 
TCOON,ioos:station:TCOON:057:1,2007-12-01T23:00:00Z,28.4460,-96.3961,0.0,5.4,156.0,6.0,'11111222,11111222,11111222' 
TCOON,ioos:station:TCOON:057:1,2007-12-02T00:00:00Z,28.4460,-96.3961,0.0,4.8,167.0,5.3,'11111222,11111222,11111222' 
TCOON,ioos:station:TCOON:057:1,2007-12-02T01:00:00Z,28.4460,-96.3961,0.0,6.3,164.0,7.4,'11111222,11111222,11111222' 
TCOON,ioos:station:TCOON:057:1,2007-12-02T02:00:00Z,28.4460,-96.3961,0.0,6.0,160.0,6.8,'11111222,11111222,11111222' 
TCOON,ioos:station:TCOON:057:1,2007-12-02T03:00:00Z,28.4460,-96.3961,0.0,4.9,158.0,5.4,'11111222,11111222,11111222' 
TCOON,ioos:station:TCOON:057:1,2007-12-02T04:00:00Z,28.4460,-96.3961,0.0,5.1,163.0,5.6,'11111222,11111222,11111222' 
TCOON,ioos:station:TCOON:057:1,2007-12-02T05:00:00Z,28.4460,-96.3961,0.0,6.3,159.0,7.0,'11111222,11111222,11111222' 
TCOON,ioos:station:TCOON:057:1,2007-12-02T06:00:00Z,28.4460,-96.3961,0.0,7.1,159.0,7.6,'11111222,11111222,11111222' 
TCOON,ioos:station:TCOON:057:1,2007-12-02T07:00:00Z,28.4460,-96.3961,0.0,6.7,165.0,7.5,'11111222,11111222,11111222' 
TCOON,ioos:station:TCOON:057:1,2007-12-02T08:00:00Z,28.4460,-96.3961,0.0,6.3,170.0,7.1,'11111222,11111222,11111222' 
TCOON,ioos:station:TCOON:057:1,2007-12-02T09:00:00Z,28.4460,-96.3961,0.0,6.4,168.0,7.4,'11111222,11111222,11111222' 
TCOON,ioos:station:TCOON:057:1,2007-12-02T10:00:00Z,28.4460,-96.3961,0.0,6.5,172.0,7.3,'11111222,11111222,11111222' 
TCOON,ioos:station:TCOON:057:1,2007-12-02T11:00:00Z,28.4460,-96.3961,0.0,6.2,173.0,7.0,'11111222,11111222,11111222' 
TCOON,ioos:station:TCOON:057:1,2007-12-02T12:00:00Z,28.4460,-96.3961,0.0,4.5,172.0,5.1,'11111222,11111222,11111222' 
TCOON,ioos:station:TCOON:057:1,2007-12-02T13:00:00Z,28.4460,-96.3961,0.0,5.2,165.0,5.6,'11111222,11111222,11111222' 
TCOON,ioos:station:TCOON:057:1,2007-12-02T14:00:00Z,28.4460,-96.3961,0.0,6.4,168.0,7.1,'11111222,11111222,11111222' 
TCOON,ioos:station:TCOON:057:1,2007-12-02T15:00:00Z,28.4460,-96.3961,0.0,5.9,173.0,6.6,'11111222,11111222,11111222' 
TCOON,ioos:station:TCOON:057:1,2007-12-02T16:00:00Z,28.4460,-96.3961,0.0,6.6,167.0,7.6,'11111222,11111222,11111222' 
TCOON,ioos:station:TCOON:057:1,2007-12-02T17:00:00Z,28.4460,-96.3961,0.0,3.8,185.0,4.8,'11111222,11111222,11111222' 
TCOON,ioos:station:TCOON:057:1,2007-12-02T18:00:00Z,28.4460,-96.3961,0.0,5.0,182.0,5.5,'11111222,11111222,11111222' 
TCOON,ioos:station:TCOON:057:1,2007-12-02T19:00:00Z,28.4460,-96.3961,0.0,1.5,183.0,1.9,'11111222,11111222,11111222' 
TCOON,ioos:station:TCOON:057:1,2007-12-02T20:00:00Z,28.4460,-96.3961,0.0,3.4,138.0,3.8,'11111222,11111222,11111222' 
TCOON,ioos:station:TCOON:057:1,2007-12-02T21:00:00Z,28.4460,-96.3961,0.0,3.4,120.0,3.6,'11111222,11111222,11111222' 
TCOON,ioos:station:TCOON:057:1,2007-12-02T22:00:00Z,28.4460,-96.3961,0.0,2.9,128.0,3.1,'11111222,11111222,11111222' 
TCOON,ioos:station:TCOON:057:1,2007-12-02T23:00:00Z,28.4460,-96.3961,0.0,1.3,354.0,2.4,'11111222,11111222,11111222' 
TCOON,ioos:station:TCOON:057:1,2007-12-03T00:00:00Z,28.4460,-96.3961,0.0,0.9,341.0,1.3,'11111222,11111222,11111222' 
TCOON,ioos:station:TCOON:057:1,2007-12-03T01:00:00Z,28.4460,-96.3961,0.0,0.0,20.0,99.0,'11111222,11111222,11144222' 
TCOON,ioos:station:TCOON:057:1,2007-12-03T02:00:00Z,28.4460,-96.3961,0.0,1.6,89.0,1.9,'11111222,11111222,11111222' 
TCOON,ioos:station:TCOON:057:1,2007-12-03T03:00:00Z,28.4460,-96.3961,0.0,1.9,59.0,2.0,'11111222,11111222,11111222' 
TCOON,ioos:station:TCOON:057:1,2007-12-03T04:00:00Z,28.4460,-96.3961,0.0,2.8,357.0,3.1,'11111222,11111222,11111222' 
TCOON,ioos:station:TCOON:057:1,2007-12-03T05:00:00Z,28.4460,-96.3961,0.0,11.1,4.0,14.2,'11111222,11111222,11111222' 
TCOON,ioos:station:TCOON:057:1,2007-12-03T06:00:00Z,28.4460,-96.3961,0.0,10.8,4.0,12.3,'11111222,11111222,11111222' 
TCOON,ioos:station:TCOON:057:1,2007-12-03T07:00:00Z,28.4460,-96.3961,0.0,11.8,4.0,13.9,'11111222,11111222,11111222' 
TCOON,ioos:station:TCOON:057:1,2007-12-03T08:00:00Z,28.4460,-96.3961,0.0,11.8,2.0,13.7,'11111222,11111222,11111222' 
TCOON,ioos:station:TCOON:057:1,2007-12-03T09:00:00Z,28.4460,-96.3961,0.0,13.9,359.0,16.6,'11111222,11111222,11111222' 
TCOON,ioos:station:TCOON:057:1,2007-12-03T10:00:00Z,28.4460,-96.3961,0.0,12.9,2.0,15.2,'11111222,11111222,11111222' 
TCOON,ioos:station:TCOON:057:1,2007-12-03T11:00:00Z,28.4460,-96.3961,0.0,13.5,10.0,16.4,'11111222,11111222,11111222' 
TCOON,ioos:station:TCOON:057:1,2007-12-03T12:00:00Z,28.4460,-96.3961,0.0,13.2,7.0,15.5,'11111222,11111222,11111222' 
TCOON,ioos:station:TCOON:057:1,2007-12-03T13:00:00Z,28.4460,-96.3961,0.0,13.3,4.0,16.2,'11111222,11111222,11111222' 
TCOON,ioos:station:TCOON:057:1,2007-12-03T14:00:00Z,28.4460,-96.3961,0.0,13.6,7.0,15.5,'11111222,11111222,11111222' 
TCOON,ioos:station:TCOON:057:1,2007-12-03T15:00:00Z,28.4460,-96.3961,0.0,11.9,12.0,14.1,'11111222,11111222,11111222' 
TCOON,ioos:station:TCOON:057:1,2007-12-03T16:00:00Z,28.4460,-96.3961,0.0,10.4,15.0,12.5,'11111222,11111222,11111222' 
TCOON,ioos:station:TCOON:057:1,2007-12-03T17:00:00Z,28.4460,-96.3961,0.0,8.2,14.0,9.5,'11111222,11111222,11111222' 
TCOON,ioos:station:TCOON:057:1,2007-12-03T18:00:00Z,28.4460,-96.3961,0.0,9.0,358.0,10.4,'11111222,11111222,11111222' 
TCOON,ioos:station:TCOON:057:1,2007-12-03T19:00:00Z,28.4460,-96.3961,0.0,8.3,2.0,9.6,'11111222,11111222,11111222' 
TCOON,ioos:station:TCOON:057:1,2007-12-03T20:00:00Z,28.4460,-96.3961,0.0,9.4,1.0,10.9,'11111222,11111222,11111222' 
TCOON,ioos:station:TCOON:057:1,2007-12-03T21:00:00Z,28.4460,-96.3961,0.0,8.2,3.0,9.3,'11111222,11111222,11111222' 
TCOON,ioos:station:TCOON:057:1,2007-12-03T22:00:00Z,28.4460,-96.3961,0.0,7.4,9.0,8.8,'11111222,11111222,11111222' 
TCOON,ioos:station:TCOON:057:1,2007-12-03T23:00:00Z,28.4460,-96.3961,0.0,8.2,2.0,9.0,'11111222,11111222,11111222' 
TCOON,ioos:station:TCOON:057:1,2007-12-04T00:00:00Z,28.4460,-96.3961,0.0,8.0,359.0,9.5,'11111222,11111222,11111222' 
TCOON,ioos:station:TCOON:057:1,2007-12-04T01:00:00Z,28.4460,-96.3961,0.0,8.2,6.0,9.1,'11111222,11111222,11111222' 
TCOON,ioos:station:TCOON:057:1,2007-12-04T02:00:00Z,28.4460,-96.3961,0.0,9.1,6.0,10.5,'11111222,11111222,11111222' 
TCOON,ioos:station:TCOON:057:1,2007-12-04T03:00:00Z,28.4460,-96.3961,0.0,8.4,14.0,9.3,'11111222,11111222,11111222' 
TCOON,ioos:station:TCOON:057:1,2007-12-04T04:00:00Z,28.4460,-96.3961,0.0,7.6,16.0,8.5,'11111222,11111222,11111222' 
TCOON,ioos:station:TCOON:057:1,2007-12-04T05:00:00Z,28.4460,-96.3961,0.0,7.1,27.0,7.9,'11111222,11111222,11111222' 
TCOON,ioos:station:TCOON:057:1,2007-12-04T06:00:00Z,28.4460,-96.3961,0.0,6.3,27.0,7.2,'11111222,11111222,11111222' 
TCOON,ioos:station:TCOON:057:1,2007-12-04T07:00:00Z,28.4460,-96.3961,0.0,5.4,39.0,6.1,'11111222,11111222,11111222' 
TCOON,ioos:station:TCOON:057:1,2007-12-04T08:00:00Z,28.4460,-96.3961,0.0,5.6,47.0,6.2,'11111222,11111222,11111222' 
TCOON,ioos:station:TCOON:057:1,2007-12-04T09:00:00Z,28.4460,-96.3961,0.0,5.4,44.0,6.1,'11111222,11111222,11111222' 
TCOON,ioos:station:TCOON:057:1,2007-12-04T10:00:00Z,28.4460,-96.3961,0.0,4.8,64.0,5.6,'11111222,11111222,11111222' 
TCOON,ioos:station:TCOON:057:1,2007-12-04T11:00:00Z,28.4460,-96.3961,0.0,2.8,71.0,3.5,'11111222,11111222,11111222' 
TCOON,ioos:station:TCOON:057:1,2007-12-04T12:00:00Z,28.4460,-96.3961,0.0,2.7,92.0,3.5,'11111222,11111222,11111222' 
TCOON,ioos:station:TCOON:057:1,2007-12-04T13:00:00Z,28.4460,-96.3961,0.0,1.1,91.0,1.9,'11111222,11111222,11111222' 
TCOON,ioos:station:TCOON:057:1,2007-12-04T14:00:00Z,28.4460,-96.3961,0.0,0.2,358.0,0.4,'11111222,11111222,11111222' 
TCOON,ioos:station:TCOON:057:1,2007-12-04T15:00:00Z,28.4460,-96.3961,0.0,2.3,320.0,2.6,'11111222,11111222,11111222' 
TCOON,ioos:station:TCOON:057:1,2007-12-04T16:00:00Z,28.4460,-96.3961,0.0,1.8,6.0,2.1,'11111222,11111222,11111222' 
TCOON,ioos:station:TCOON:057:1,2007-12-04T17:00:00Z,28.4460,-96.3961,0.0,3.1,2.0,3.5,'11111222,11111222,11111222' 
TCOON,ioos:station:TCOON:057:1,2007-12-04T18:00:00Z,28.4460,-96.3961,0.0,1.7,45.0,2.4,'11111222,11111222,11111222' 
TCOON,ioos:station:TCOON:057:1,2007-12-04T19:00:00Z,28.4460,-96.3961,0.0,1.3,68.0,2.0,'11111222,11111222,11111222' 
TCOON,ioos:station:TCOON:057:1,2007-12-04T20:00:00Z,28.4460,-96.3961,0.0,1.5,109.0,2.1,'11111222,11111222,11111222' 
TCOON,ioos:station:TCOON:057:1,2007-12-04T21:00:00Z,28.4460,-96.3961,0.0,5.2,167.0,5.8,'11111222,11111222,11111222' 
TCOON,ioos:station:TCOON:057:1,2007-12-04T22:00:00Z,28.4460,-96.3961,0.0,3.9,163.0,4.3,'11111222,11111222,11111222' 
TCOON,ioos:station:TCOON:057:1,2007-12-04T23:00:00Z,28.4460,-96.3961,0.0,4.1,173.0,4.9,'11111222,11111222,11111222' 
TCOON,ioos:station:TCOON:057:1,2007-12-05T00:00:00Z,28.4460,-96.3961,0.0,3.1,199.0,3.5,'11111222,11111222,11111222' 
TCOON,ioos:station:TCOON:057:1,2007-12-05T01:00:00Z,28.4460,-96.3961,0.0,3.5,167.0,3.9,'11111222,11111222,11111222' 
TCOON,ioos:station:TCOON:057:1,2007-12-05T02:00:00Z,28.4460,-96.3961,0.0,3.8,174.0,4.1,'11111222,11111222,11111222' 
TCOON,ioos:station:TCOON:057:1,2007-12-05T03:00:00Z,28.4460,-96.3961,0.0,3.5,191.0,4.0,'11111222,11111222,11111222' 
TCOON,ioos:station:TCOON:057:1,2007-12-05T04:00:00Z,28.4460,-96.3961,0.0,3.7,192.0,4.2,'11111222,11111222,11111222' 
TCOON,ioos:station:TCOON:057:1,2007-12-05T05:00:00Z,28.4460,-96.3961,0.0,4.3,198.0,4.9,'11111222,11111222,11111222' 
TCOON,ioos:station:TCOON:057:1,2007-12-05T06:00:00Z,28.4460,-96.3961,0.0,3.9,198.0,4.2,'11111222,11111222,11111222' 
TCOON,ioos:station:TCOON:057:1,2007-12-05T07:00:00Z,28.4460,-96.3961,0.0,3.7,210.0,4.6,'11111222,11111222,11111222' 
TCOON,ioos:station:TCOON:057:1,2007-12-05T08:00:00Z,28.4460,-96.3961,0.0,2.6,219.0,2.8,'11111222,11111222,11111222' 
TCOON,ioos:station:TCOON:057:1,2007-12-05T09:00:00Z,28.4460,-96.3961,0.0,2.0,318.0,2.2,'11111222,11111222,11111222' 
TCOON,ioos:station:TCOON:057:1,2007-12-05T13:00:00Z,28.4460,-96.3961,0.0,2.0,271.0,2.4,'11111222,11111222,11111222' 
TCOON,ioos:station:TCOON:057:1,2007-12-05T14:00:00Z,28.4460,-96.3961,0.0,1.1,272.0,1.4,'11111222,11111222,11111222' 
TCOON,ioos:station:TCOON:057:1,2007-12-05T15:00:00Z,28.4460,-96.3961,0.0,0.0,181.0,99.0,'11111222,11111222,11144222' 
TCOON,ioos:station:TCOON:057:1,2007-12-05T16:00:00Z,28.4460,-96.3961,0.0,0.7,73.0,0.8,'11111222,11111222,11111222' 
TCOON,ioos:station:TCOON:057:1,2007-12-05T17:00:00Z,28.4460,-96.3961,0.0,2.6,219.0,3.5,'11111222,11111222,11111222' 
TCOON,ioos:station:TCOON:057:1,2007-12-05T18:00:00Z,28.4460,-96.3961,0.0,2.3,41.0,2.6,'11111222,11111222,11111222' 
TCOON,ioos:station:TCOON:057:1,2007-12-05T19:00:00Z,28.4460,-96.3961,0.0,1.0,85.0,1.4,'11111222,11111222,11111222' 
TCOON,ioos:station:TCOON:057:1,2007-12-05T20:00:00Z,28.4460,-96.3961,0.0,3.9,233.0,4.7,'11111222,11111222,11111222' 
TCOON,ioos:station:TCOON:057:1,2007-12-05T21:00:00Z,28.4460,-96.3961,0.0,1.8,131.0,2.4,'11111222,11111222,11111222' 
TCOON,ioos:station:TCOON:057:1,2007-12-05T22:00:00Z,28.4460,-96.3961,0.0,3.7,159.0,3.8,'11111222,11111222,11111222' 
TCOON,ioos:station:TCOON:057:1,2007-12-05T23:00:00Z,28.4460,-96.3961,0.0,1.9,131.0,2.1,'11111222,11111222,11111222' 
TCOON,ioos:station:TCOON:057:1,2007-12-06T00:00:00Z,28.4460,-96.3961,0.0,2.6,111.0,3.0,'11111222,11111222,11111222' 
TCOON,ioos:station:TCOON:057:1,2007-12-06T01:00:00Z,28.4460,-96.3961,0.0,2.7,101.0,3.0,'11111222,11111222,11111222' 
TCOON,ioos:station:TCOON:057:1,2007-12-06T02:00:00Z,28.4460,-96.3961,0.0,3.6,133.0,4.0,'11111222,11111222,11111222' 
TCOON,ioos:station:TCOON:057:1,2007-12-06T03:00:00Z,28.4460,-96.3961,0.0,3.4,136.0,3.7,'11111222,11111222,11111222' 
TCOON,ioos:station:TCOON:057:1,2007-12-06T04:00:00Z,28.4460,-96.3961,0.0,2.4,120.0,2.6,'11111222,11111222,11111222' 
TCOON,ioos:station:TCOON:057:1,2007-12-06T05:00:00Z,28.4460,-96.3961,0.0,1.6,108.0,1.8,'11111222,11111222,11111222' 
TCOON,ioos:station:TCOON:057:1,2007-12-06T06:00:00Z,28.4460,-96.3961,0.0,2.0,66.0,2.1,'11111222,11111222,11111222' 
TCOON,ioos:station:TCOON:057:1,2007-12-06T07:00:00Z,28.4460,-96.3961,0.0,1.7,85.0,1.8,'11111222,11111222,11111222' 
TCOON,ioos:station:TCOON:057:1,2007-12-06T08:00:00Z,28.4460,-96.3961,0.0,1.6,75.0,1.7,'11111222,11111222,11111222' 
TCOON,ioos:station:TCOON:057:1,2007-12-06T09:00:00Z,28.4460,-96.3961,0.0,1.2,94.0,1.4,'11111222,11111222,11111222' 
TCOON,ioos:station:TCOON:057:1,2007-12-06T10:00:00Z,28.4460,-96.3961,0.0,2.2,90.0,2.4,'11111222,11111222,11111222' 
TCOON,ioos:station:TCOON:057:1,2007-12-06T11:00:00Z,28.4460,-96.3961,0.0,2.7,73.0,2.9,'11111222,11111222,11111222' 
TCOON,ioos:station:TCOON:057:1,2007-12-06T12:00:00Z,28.4460,-96.3961,0.0,3.0,83.0,3.1,'11111222,11111222,11111222' 
TCOON,ioos:station:TCOON:057:1,2007-12-06T13:00:00Z,28.4460,-96.3961,0.0,3.3,75.0,3.5,'11111222,11111222,11111222' 
TCOON,ioos:station:TCOON:057:1,2007-12-06T14:00:00Z,28.4460,-96.3961,0.0,3.1,74.0,3.4,'11111222,11111222,11111222' 
TCOON,ioos:station:TCOON:057:1,2007-12-06T15:00:00Z,28.4460,-96.3961,0.0,4.2,35.0,4.7,'11111222,11111222,11111222' 
TCOON,ioos:station:TCOON:057:1,2007-12-06T16:00:00Z,28.4460,-96.3961,0.0,3.8,78.0,4.1,'11111222,11111222,11111222' 
TCOON,ioos:station:TCOON:057:1,2007-12-06T17:00:00Z,28.4460,-96.3961,0.0,4.7,70.0,5.2,'11111222,11111222,11111222' 
TCOON,ioos:station:TCOON:057:1,2007-12-06T18:00:00Z,28.4460,-96.3961,0.0,5.3,91.0,5.8,'11111222,11111222,11111222' 
TCOON,ioos:station:TCOON:057:1,2007-12-06T19:00:00Z,28.4460,-96.3961,0.0,4.7,106.0,5.2,'11111222,11111222,11111222' 
TCOON,ioos:station:TCOON:057:1,2007-12-06T20:00:00Z,28.4460,-96.3961,0.0,3.9,118.0,4.2,'11111222,11111222,11111222' 
TCOON,ioos:station:TCOON:057:1,2007-12-06T21:00:00Z,28.4460,-96.3961,0.0,3.6,117.0,4.0,'11111222,11111222,11111222' 
TCOON,ioos:station:TCOON:057:1,2007-12-06T22:00:00Z,28.4460,-96.3961,0.0,4.5,113.0,4.9,'11111222,11111222,11111222' 
TCOON,ioos:station:TCOON:057:1,2007-12-06T23:00:00Z,28.4460,-96.3961,0.0,4.3,114.0,4.6,'11111222,11111222,11111222' 
TCOON,ioos:station:TCOON:057:1,2007-12-07T00:00:00Z,28.4460,-96.3961,0.0,4.4,125.0,5.2,'11111222,11111222,11111222' 
TCOON,ioos:station:TCOON:057:1,2007-12-07T01:00:00Z,28.4460,-96.3961,0.0,4.7,140.0,5.4,'11111222,11111222,11111222' 
TCOON,ioos:station:TCOON:057:1,2007-12-07T02:00:00Z,28.4460,-96.3961,0.0,4.1,151.0,4.6,'11111222,11111222,11111222' 
TCOON,ioos:station:TCOON:057:1,2007-12-07T03:00:00Z,28.4460,-96.3961,0.0,5.3,156.0,6.1,'11111222,11111222,11111222' 
TCOON,ioos:station:TCOON:057:1,2007-12-07T04:00:00Z,28.4460,-96.3961,0.0,5.8,160.0,6.5,'11111222,11111222,11111222' 
TCOON,ioos:station:TCOON:057:1,2007-12-07T05:00:00Z,28.4460,-96.3961,0.0,6.6,166.0,7.6,'11111222,11111222,11111222' 
TCOON,ioos:station:TCOON:057:1,2007-12-07T06:00:00Z,28.4460,-96.3961,0.0,6.1,171.0,6.8,'11111222,11111222,11111222' 
TCOON,ioos:station:TCOON:057:1,2007-12-07T07:00:00Z,28.4460,-96.3961,0.0,5.0,176.0,5.5,'11111222,11111222,11111222' 
TCOON,ioos:station:TCOON:057:1,2007-12-07T08:00:00Z,28.4460,-96.3961,0.0,4.6,176.0,5.2,'11111222,11111222,11111222' 
TCOON,ioos:station:TCOON:057:1,2007-12-07T09:00:00Z,28.4460,-96.3961,0.0,4.6,173.0,5.1,'11111222,11111222,11111222' 
TCOON,ioos:station:TCOON:057:1,2007-12-07T10:00:00Z,28.4460,-96.3961,0.0,3.8,172.0,4.2,'11111222,11111222,11111222' 
TCOON,ioos:station:TCOON:057:1,2007-12-07T11:00:00Z,28.4460,-96.3961,0.0,2.8,149.0,2.9,'11111222,11111222,11111222' 
TCOON,ioos:station:TCOON:057:1,2007-12-07T12:00:00Z,28.4460,-96.3961,0.0,2.9,160.0,3.2,'11111222,11111222,11111222' 
TCOON,ioos:station:TCOON:057:1,2007-12-07T13:00:00Z,28.4460,-96.3961,0.0,4.0,155.0,4.5,'11111222,11111222,11111222' 
TCOON,ioos:station:TCOON:057:1,2007-12-07T14:00:00Z,28.4460,-96.3961,0.0,3.0,157.0,3.2,'11111222,11111222,11111222' 
TCOON,ioos:station:TCOON:057:1,2007-12-07T15:00:00Z,28.4460,-96.3961,0.0,3.8,151.0,4.1,'11111222,11111222,11111222' 
TCOON,ioos:station:TCOON:057:1,2007-12-07T16:00:00Z,28.4460,-96.3961,0.0,5.3,153.0,6.0,'11111222,11111222,11111222' 
TCOON,ioos:station:TCOON:057:1,2007-12-07T17:00:00Z,28.4460,-96.3961,0.0,4.2,161.0,4.6,'11111222,11111222,11111222' 
TCOON,ioos:station:TCOON:057:1,2007-12-07T18:00:00Z,28.4460,-96.3961,0.0,5.0,163.0,5.5,'11111222,11111222,11111222' 
TCOON,ioos:station:TCOON:057:1,2007-12-07T19:00:00Z,28.4460,-96.3961,0.0,4.7,163.0,5.2,'11111222,11111222,11111222' 
TCOON,ioos:station:TCOON:057:1,2007-12-07T20:00:00Z,28.4460,-96.3961,0.0,3.7,168.0,4.0,'11111222,11111222,11111222' 
TCOON,ioos:station:TCOON:057:1,2007-12-07T21:00:00Z,28.4460,-96.3961,0.0,5.5,158.0,5.9,'11111222,11111222,11111222' 
TCOON,ioos:station:TCOON:057:1,2007-12-07T22:00:00Z,28.4460,-96.3961,0.0,5.9,149.0,6.4,'11111222,11111222,11111222' 
TCOON,ioos:station:TCOON:057:1,2007-12-07T23:00:00Z,28.4460,-96.3961,0.0,5.8,141.0,6.8,'11111222,11111222,11111222' 
TCOON,ioos:station:TCOON:057:1,2007-12-08T00:00:00Z,28.4460,-96.3961,0.0,6.0,138.0,6.7,'11111222,11111222,11111222' 
TCOON,ioos:station:TCOON:057:1,2007-12-08T01:00:00Z,28.4460,-96.3961,0.0,6.8,143.0,7.4,'11111222,11111222,11111222' 
TCOON,ioos:station:TCOON:057:1,2007-12-08T02:00:00Z,28.4460,-96.3961,0.0,6.5,145.0,7.5,'11111222,11111222,11111222' 
TCOON,ioos:station:TCOON:057:1,2007-12-08T03:00:00Z,28.4460,-96.3961,0.0,5.9,151.0,6.7,'11111222,11111222,11111222' 
TCOON,ioos:station:TCOON:057:1,2007-12-08T04:00:00Z,28.4460,-96.3961,0.0,5.5,157.0,6.2,'11111222,11111222,11111222' 
TCOON,ioos:station:TCOON:057:1,2007-12-08T05:00:00Z,28.4460,-96.3961,0.0,6.4,156.0,7.1,'11111222,11111222,11111222' 
TCOON,ioos:station:TCOON:057:1,2007-12-08T06:00:00Z,28.4460,-96.3961,0.0,5.8,159.0,6.6,'11111222,11111222,11111222' 
TCOON,ioos:station:TCOON:057:1,2007-12-08T07:00:00Z,28.4460,-96.3961,0.0,5.0,171.0,5.4,'11111222,11111222,11111222' 
TCOON,ioos:station:TCOON:057:1,2007-12-08T08:00:00Z,28.4460,-96.3961,0.0,4.3,173.0,4.8,'11111222,11111222,11111222' 
TCOON,ioos:station:TCOON:057:1,2007-12-08T09:00:00Z,28.4460,-96.3961,0.0,4.0,153.0,4.5,'11111222,11111222,11111222' 
TCOON,ioos:station:TCOON:057:1,2007-12-08T10:00:00Z,28.4460,-96.3961,0.0,2.3,139.0,2.3,'11111222,11111222,11111222' 
TCOON,ioos:station:TCOON:057:1,2007-12-08T11:00:00Z,28.4460,-96.3961,0.0,3.2,121.0,3.4,'11111222,11111222,11111222' 
TCOON,ioos:station:TCOON:057:1,2007-12-08T12:00:00Z,28.4460,-96.3961,0.0,3.8,125.0,4.0,'11111222,11111222,11111222' 
TCOON,ioos:station:TCOON:057:1,2007-12-08T13:00:00Z,28.4460,-96.3961,0.0,5.0,125.0,5.4,'11111222,11111222,11111222' 
TCOON,ioos:station:TCOON:057:1,2007-12-08T14:00:00Z,28.4460,-96.3961,0.0,4.6,134.0,5.0,'11111222,11111222,11111222' 
TCOON,ioos:station:TCOON:057:1,2007-12-08T15:00:00Z,28.4460,-96.3961,0.0,5.7,139.0,6.4,'11111222,11111222,11111222' 
TCOON,ioos:station:TCOON:057:1,2007-12-08T16:00:00Z,28.4460,-96.3961,0.0,6.1,140.0,6.6,'11111222,11111222,11111222' 
TCOON,ioos:station:TCOON:057:1,2007-12-08T17:00:00Z,28.4460,-96.3961,0.0,5.0,136.0,5.8,'11111222,11111222,11111222' 
TCOON,ioos:station:TCOON:057:1,2007-12-08T18:00:00Z,28.4460,-96.3961,0.0,5.9,131.0,6.6,'11111222,11111222,11111222' 
TCOON,ioos:station:TCOON:057:1,2007-12-08T19:00:00Z,28.4460,-96.3961,0.0,5.5,127.0,6.0,'11111222,11111222,11111222' 
TCOON,ioos:station:TCOON:057:1,2007-12-08T20:00:00Z,28.4460,-96.3961,0.0,4.9,127.0,5.4,'11111222,11111222,11111222' 
TCOON,ioos:station:TCOON:057:1,2007-12-08T21:00:00Z,28.4460,-96.3961,0.0,6.3,121.0,7.1,'11111222,11111222,11111222' 
TCOON,ioos:station:TCOON:057:1,2007-12-08T22:00:00Z,28.4460,-96.3961,0.0,7.3,116.0,8.1,'11111222,11111222,11111222' 
TCOON,ioos:station:TCOON:057:1,2007-12-08T23:00:00Z,28.4460,-96.3961,0.0,7.5,121.0,8.3,'11111222,11111222,11111222' 
TCOON,ioos:station:TCOON:057:1,2007-12-09T00:00:00Z,28.4460,-96.3961,0.0,6.7,121.0,7.5,'11111222,11111222,11111222' 
TCOON,ioos:station:TCOON:057:1,2007-12-09T01:00:00Z,28.4460,-96.3961,0.0,7.1,121.0,7.7,'11111222,11111222,11111222' 
TCOON,ioos:station:TCOON:057:1,2007-12-09T02:00:00Z,28.4460,-96.3961,0.0,6.5,125.0,7.3,'11111222,11111222,11111222' 
TCOON,ioos:station:TCOON:057:1,2007-12-09T03:00:00Z,28.4460,-96.3961,0.0,5.7,129.0,6.7,'11111222,11111222,11111222' 
TCOON,ioos:station:TCOON:057:1,2007-12-09T04:00:00Z,28.4460,-96.3961,0.0,6.1,134.0,7.0,'11111222,11111222,11111222' 
TCOON,ioos:station:TCOON:057:1,2007-12-09T05:00:00Z,28.4460,-96.3961,0.0,4.1,142.0,4.9,'11111222,11111222,11111222' 
TCOON,ioos:station:TCOON:057:1,2007-12-09T06:00:00Z,28.4460,-96.3961,0.0,4.0,145.0,4.6,'11111222,11111222,11111222' 
TCOON,ioos:station:TCOON:057:1,2007-12-09T07:00:00Z,28.4460,-96.3961,0.0,5.7,130.0,6.4,'11111222,11111222,11111222' 
TCOON,ioos:station:TCOON:057:1,2007-12-09T08:00:00Z,28.4460,-96.3961,0.0,4.0,136.0,4.2,'11111222,11111222,11111222' 
TCOON,ioos:station:TCOON:057:1,2007-12-09T09:00:00Z,28.4460,-96.3961,0.0,5.7,125.0,6.4,'11111222,11111222,11111222' 
TCOON,ioos:station:TCOON:057:1,2007-12-09T10:00:00Z,28.4460,-96.3961,0.0,6.6,133.0,7.8,'11111222,11111222,11111222' 
TCOON,ioos:station:TCOON:057:1,2007-12-09T11:00:00Z,28.4460,-96.3961,0.0,4.8,134.0,5.7,'11111222,11111222,11111222' 
TCOON,ioos:station:TCOON:057:1,2007-12-09T12:00:00Z,28.4460,-96.3961,0.0,4.6,125.0,5.2,'11111222,11111222,11111222' 
TCOON,ioos:station:TCOON:057:1,2007-12-09T13:00:00Z,28.4460,-96.3961,0.0,4.9,117.0,5.4,'11111222,11111222,11111222' 
TCOON,ioos:station:TCOON:057:1,2007-12-09T14:00:00Z,28.4460,-96.3961,0.0,4.9,129.0,5.5,'11111222,11111222,11111222' 
TCOON,ioos:station:TCOON:057:1,2007-12-09T15:00:00Z,28.4460,-96.3961,0.0,3.7,129.0,4.3,'11111222,11111222,11111222' 